Regional Weather Roundup
Issued by NWS Wakefield, VA

Home | Current Version | Previous Version | Text Only | Print | Product List | Glossary On
Versions: 1 2 3 4 5 6 7 8 9 10 11 12 13 14 15 16 17 18 19 20 21 22 23 24 25 26 27 28
000
ASUS41 KAKQ 240815
RWRAKQ

REGIONAL WEATHER ROUNDUP
NATIONAL WEATHER SERVICE WAKEFIELD VA
400 AM EDT WED AUG 24 2016

Note: "fair" indicates few or no clouds below 12,000 feet with no
significant weather and/or obstructions to visibility. * = Denotes
station may not report precipitation (e.g., rain,snow,etc.),
thunder or fog.

VAZ042-051-052>054-056-240900-
NORTHERN VIRGINIA

CITY           SKY/WX    TMP DP  RH WIND       PRES   REMARKS
WASH NATIONAL  PTCLDY    70  63  78 CALM      30.28F
DULLES         CLEAR     63  59  87 SE3       30.28F
FORT BELVOIR   CLEAR     63  61  95 CALM      30.27F
QUANTICO       CLEAR     66  63  90 W6        30.28F
FREDERICKSBRG* PTCLDY    64  64 100 CALM      30.28S
STAFFORD*      PTCLDY    59  58  97 NW3       30.33S
WARRENTON      MOCLDY    61  56  85 CALM      30.28S
CULPEPER*      MOCLDY    62  62 100 CALM      30.29F
MANASSAS*      CLEAR     63  61  94 S3        30.29S
LEESBURG*      CLEAR     64  63  94 CALM      30.29S
WINCHESTER     CLEAR     63  61  94 CALM      30.27S
FRONT ROYAL*   CLOUDY    63  63 100 CALM      30.26F VSB<1/4
LURAY*         FOG      N/A N/A N/A CALM      30.28F VSB 1/4
$$

VAZ048-049-060>072-079>083-240900-
CENTRAL AND SOUTH CENTRAL VIRGINIA

CITY           SKY/WX    TMP DP  RH WIND       PRES   REMARKS
RICHMOND       PTCLDY    62  59  90 CALM      30.28S
CHESTERFIELD*  PTSUNNY   61  48  63 CALM      30.29F
PETERSBURG*    CLEAR    N/A N/A N/A CALM      30.29S
HANOVER        MOCLDY    62  59  90 CALM      30.30S
TAPPAHANNOCK*  PTCLDY    61  61 100 CALM      30.29F
QUINTON*       FAIR      60  60  97 CALM      30.28S
CHARLOTTSVILLE FOG       64  62  93 W5        30.29F VSB 1
GORDONSVILLE*  FAIR      63  63 100 CALM      30.28F
ORANGE*          N/A     63  63 100 CALM      30.30F
LOUISA*        MOCLDY    61  61 100 CALM      30.28F FOG
BUMPASS*       CLOUDY    61  61 100 CALM      30.29S
FARMVILLE*     CLOUDY   N/A N/A N/A CALM      30.28S
CREWE*         FAIR      60  60 100 CALM      30.29S
FORT PICKETT*  NOT AVBL
CHASE CITY*    FAIR      64  63  94 S3        30.29S
CLARKSVILLE*   FAIR      64  64 100 CALM      30.28S
SOUTH HILL*    CLOUDY    60  60  97 CALM      30.34F
LAWRENCEVILLE* FAIR      62  61  96 CALM      30.28F
EMPORIA*       CLOUDY    59  59 100 CALM      30.30R
$$

VAZ088>098-240900-
SOUTHEAST VIRGINIA

CITY           SKY/WX    TMP DP  RH WIND       PRES   REMARKS
NORFOLK        CLEAR     67  62  84 CALM      30.26F
VIRGINIA BEACH CLEAR     68  58  70 CALM      30.26S
NORFOLK NAVAL  CLEAR     64  61  90 CALM      30.28S
WEST POINT*    CLEAR     60  58  96 CALM      30.29F
SALUDA*        FAIR      63  61  95 CALM      30.27F
NEWPORT NEWS   CLEAR     62  60  93 CALM      30.27F
LANGLEY AFB    CLEAR     64  61  91 W2        30.26F
FORT EUSTIS    CLEAR     64  60  87 CALM      30.25S
WILLIAMSBURG*  CLEAR     66  63  88 CALM      30.28F
HR EXEC AP*    FAIR      55  52  88 CALM      30.29F
FRANKLIN*      CLEAR     59  57  95 CALM      30.28S
US460-WAKEFLD  CLEAR     60  58  92 CALM      30.28S
$$

VAZ020-022-025-037-045-240900-
WEST CENTRAL AND SOUTHWEST VIRGINIA

CITY           SKY/WX    TMP DP  RH WIND       PRES   REMARKS
STAUNTON*      CLOUDY    58  58  98 CALM      30.32S FOG
WAYNESBORO*    FAIR      62  60  94 SW3       30.31S
HOT SPRINGS VA MOCLDY    62  62 100 S7        30.38F
LYNCHBURG      CLEAR     63  62  97 CALM      30.32R
DANVILLE       CLEAR     63  62  97 CALM      30.28S
SOUTH BOSTON*  FAIR      64  63  94 CALM      30.28F
MARTINSVILLE   PTCLDY    60  59  97 CALM      30.32S FOG
ROANOKE        CLEAR     64  62  93 CALM      30.32S
BLACKSBURG     CLOUDY    62  61  99 CALM      30.36F
DUBLIN*        CLEAR     62  62 100 CALM      30.35F
MARION*        CLEAR     60  59  96 CALM      30.37S FOG
HILLSVILLE*    CLEAR     63  60  90 CALM      30.35S
RICHLANDS*     FAIR      67  61  82 SE5       30.32F
WISE*          CLEAR     66  54  63 SW7       30.33S
ABINGDON*      CLEAR     67  63  86 E5        30.30F
$$

MDZ021>025-VAZ099-100-240900-
SOUTHERN MARYLAND AND THE DELMARVA PENINSULA

CITY           SKY/WX    TMP DP  RH WIND       PRES   REMARKS
PATUXENT RIVER CLEAR     63  60  90 SW3       30.27F
BAY BRIDGE APT CLEAR     72  64  78 SW5       30.28R
LEONARDTOWN    CLEAR     63  59  88 CALM      30.29F
DOVER          CLEAR     65  63  94 SW3       30.27S
GEORGETOWN     CLEAR     60  58  92 CALM      30.29F
EASTON         CLEAR     66  64  91 CALM      30.32R
CAMBRIDGE      CLEAR     61  59  94 CALM      30.28S
SALISBURY      CLEAR     59  57  93 CALM      30.28F
OCEAN CITY     CLEAR     59  57  93 CALM      30.28F
WALLOPS ISLAND CLEAR     62  59  90 CALM      30.28F
ACCOMACK*      CLEAR     60  57  91 CALM      30.28S
$$

NCZ012>017-030>032-240900-
NORTH CENTRAL AND EASTERN NORTH CAROLINA

CITY           SKY/WX    TMP DP  RH WIND       PRES   REMARKS
ROANOKE RAPIDS FAIR      59  59 100 CALM      30.28S
RALEIGH        PTCLDY    69  61  75 SE3       30.28S
ELIZABETH CITY CLEAR     61  59  93 W3        30.26F
AHOSKIE*       PTCLDY    60  59  96 CALM      30.28S
EDENTON*       CLEAR    N/A N/A N/A CALM      30.27S
CURRITUCK*       N/A     65  64  96 CALM      30.27S
KILL DEVIL HLS CLEAR     72  65  79 NE3       30.24S
MANTEO         CLEAR     70  63  77 NE6       30.25F
CAPE HATTERAS  CLEAR     73  64  73 NE5       30.23F
TARBORO*       FAIR      64  63  98 CALM      30.28S
GOLDSBORO      CLEAR     66  66 100 CALM      30.25S
WASHINGTON     PTCLDY    62  60  94 CALM      30.26F
GREENVILLE     PTCLDY    63  63 100 CALM      30.27S
NEW BERN       CLEAR     66  62  87 CALM      30.26F
WILMINGTON     CLEAR     68  63  84 NE5       30.23F
$$

VAZ048-240900-
ELSEWHERE

CITY           SKY/WX    TMP DP  RH WIND       PRES   REMARKS
HARRISBURG PA  PTCLDY    65  62  90 E6        30.26F
BALTIMORE      PTCLDY    63  58  83 CALM      30.28S
ANNAPOLIS      CLEAR     70  62  76 CALM      30.27S
ANDREWS AFB    CLOUDY    64  60  87 S5        30.27F
PHILADELPHIA   CLEAR     69  59  70 SW6       30.28F
HENDERSON NC   CLEAR     63  60  90 CALM      30.29S
GREENSBORO     CLEAR     68  64  87 SE5       30.28S
ROCKY MOUNT    PTCLDY    62  62 100 CALM      30.28S
$$

VAZ100-240900-
MARINE

STATION/POSITION TIME  TEMP    WIND        PRES    WAVE   SWELL
                       AIR SEA DIR/SP/G            HT/PER HT/PER
                 (UTC) (F)     (DEG/KT/KT) (MB)    (FT/S) (FT/S)
BRANDYWINE LGT   0700   71     240/ 10/ 11   N/A
CAPE MAY NJ      0700   70 73  220/  4/  5 1025.1F
LEWES DE         0700   65 75  230/  3/  5 1025.3F
OCEAN-CITY-INLET 0700   68 73  360/  1/  2 1025.9F
WACHAPREAGUE VA  0700   63 78  310/  2/  3 1025.3F
THOMAS POINT MD  0800   73 82  230/ 11/ 13 1026.6S
GOOSES REEF MD   0800   75 82  240/ 10/ 12 1025.6F   1/ 2
COVE POINT MD    0700   73     250/  7/  9 1025.8F
SOLOMONS ISLAND  0700   73 84  220/  6/  7   N/A
BISHOPS HEAD MD  0700   75 78  200/  6/  7 1025.6F
PINEY POINT MD   0700          220/  8/  9   N/A
POTOMAC MD       0800   76 82  240/  6/  6 1024.2F   1
CAMBRIDGE MD     0700   68 84  180/  4/  5 1024.5F
LEWISETTA VA     0700   71 81  230/  3/  3 1025.1R
RAPPAHANNOCK LGT 0700          100/  6/  7 1025.9S
STINGRAY PT      0800   76 83   90/  4/  8 1025.4F   1
YORKTOWN VA      0700   70 83  200/  3/  3 1024.8F
JAMESTOWN VA     0800   72 85  250/  2/  4   N/A     0
DOMINION TERM VA 0700   75     110/  5/  7 1025.1F
KIPTOPEKE VA     0700      78   80/  3/  4   N/A
CHES BAY BRIDGE  0700   75 78   50/  6/  7 1024.8F
CAPE HENRY VA    0700   75      40/  7/  8   N/A
WILLOUBY STN VA  0700   74      10/  1/  2   N/A
CAPE HENRY BUOY  0712      79                N/A     2/ 6
1ST LANDING BUOY 0800   75 76   70/  6/  6 1024.7F   1/ 3
CAPE CHARLES BUO 0726      78                N/A     2/ 6
OFFSHORE WE BUOY 0721      80                N/A     3/ 6
64NM E OF VA BCH 0750   76 81   40/ 12/ 16 1024.0F   2/ 4   2/11
DUCK PIER NC     0700   75 78   50/ 12/ 12 1023.9F
44100 DUCK FRF   0705      81                N/A     3/ 5
44056 DUCK FRF   0711      78                N/A     3/ 5
OREGON INLET NC  0700   74 78   20/  7/  8 1024.0F
HATTERAS NC      0700   75 80   40/  6/  9 1023.6S
DIAMOND SHLS NC  0750   78 84   40/ 12/ 16 1023.1F   3/ 8   2/ 8
CAPE LOOKOUT NC  0800   74      20/  9/ 10 1023.3F
$$




USA.gov is the U.S. government's official web portal to all federal, state and local government web resources and services.